Weather History for Springfield, IL

Change the Weather History Date:

Tuesday, December 3, 2013

  Actual Average Record
Temperature  
Mean Temperature 47 °F 35 °F  
Max Temperature 53 °F 43 °F 74 °F (1970)
Min Temperature 41 °F 26 °F -2 °F (1929)
Degree Days  
Heating Degree Days 18 30  
Month to date heating degree days 70 90  
Since 1 July heating degree days 1252 1158  
Cooling Degree Days 0 0  
Month to date cooling degree days 0 0  
Year to date cooling degree days 1145 1122  
Moisture  
Dew Point 45 °F    
Average Humidity 92    
Maximum Humidity 100    
Minimum Humidity 83    
Precipitation  
Precipitation 0.00 in 0.09 in 1.69 in (1982)
Month to date precipitation 0.00 0.29  
Year to date precipitation 36.75 35.20  
Snow  
Snow 0.00 in 0.10 in 4.70 in (1957)
Month to date snowfall 0.0 0.3  
Since 1 July snowfall 0.7 0.9  
Snow Depth 0.00 in    
Sea Level Pressure  
Sea Level Pressure 29.68 in    
Wind  
Wind Speed 9 mph (SSE)    
Max Wind Speed 17 mph    
Max Gust Speed 23 mph    
Visibility 2 miles    
Events Fog    
T = Trace of Precipitation, MM = Missing Value Source: NWS Daily Summary

Daily Weather History Graph

Daily Weather History Graph

Search for Another Location

Airport:

Trip Planner

Search our weather history database for the weather conditions in past years. The results will help you decide how hot, cold, wet, or windy it might be!

Date:

Astronomy

Dec. 03, 2013 Rise Set
Actual Time 7:03 AM CST 4:34 PM CST
Civil Twilight 6:33 AM CST 5:04 PM CST
Nautical Twilight 5:59 AM CST 5:37 PM CST
Astronomical Twilight 5:26 AM CST 6:10 PM CST
Moon 7:32 AM CST (12/3) 5:37 PM CST (12/3)
Length of Visible Light 10h 31m
Length of Day
9h 30m
New Moon, 1% of the Moon is Illuminated
Dec 3
New Moon
Dec 9
First Quarter
Dec 17
Full
Dec 25
Last Quarter
Jan 1
New

Hourly Weather History & Observations

Time (CST) Temp. Windchill Dew Point Humidity Pressure Visibility Wind Dir Wind Speed Gust Speed Precip Events Conditions
12:52 AM 43.0 °F 36.8 °F 42.1 °F 97% 29.68 in 4.0 mi South 11.5 mph - N/A   Clear
1:52 AM 45.0 °F 39.7 °F 43.0 °F 93% 29.69 in 3.0 mi South 10.4 mph - N/A   Clear
2:52 AM 43.0 °F 40.3 °F 42.1 °F 97% 29.68 in 3.0 mi SSE 4.6 mph - N/A   Clear
3:17 AM 41.0 °F 36.4 °F 39.2 °F 93% 29.66 in 2.5 mi South 6.9 mph - N/A   Clear
3:36 AM 41.0 °F 36.4 °F 39.2 °F 93% 29.66 in 1.8 mi SSE 6.9 mph - N/A   Partly Cloudy
3:43 AM 41.0 °F 36.4 °F 39.2 °F 93% 29.66 in 1.0 mi SSE 6.9 mph - N/A   Mist
3:52 AM 41.0 °F 37.1 °F 39.9 °F 96% 29.67 in 0.5 mi South 5.8 mph - N/A Fog Fog
4:17 AM 42.8 °F 39.3 °F 41.0 °F 93% 29.66 in 0.2 mi SSE 5.8 mph - N/A Fog Fog
4:52 AM 43.0 °F 39.5 °F 42.1 °F 97% 29.66 in 0.2 mi SSE 5.8 mph - N/A Fog Fog
5:06 AM 42.8 °F 41.1 °F 42.8 °F 100% 29.66 in 0.5 mi SSE 3.5 mph - N/A Fog Fog
5:42 AM 42.8 °F 39.3 °F 42.8 °F 100% 29.67 in 0.2 mi SSE 5.8 mph - N/A Fog Fog
5:52 AM 43.0 °F 40.3 °F 42.1 °F 97% 29.69 in 0.2 mi SSE 4.6 mph - N/A Fog Fog
6:52 AM 45.0 °F 41.2 °F 44.1 °F 97% 29.71 in 0.2 mi South 6.9 mph - N/A Fog Fog
7:52 AM 46.0 °F 42.5 °F 45.0 °F 96% 29.70 in 0.2 mi South 6.9 mph - N/A Fog Fog
7:59 AM 46.4 °F 42.9 °F 44.6 °F 93% 29.69 in 0.2 mi SSE 6.9 mph - N/A Fog Fog
8:52 AM 46.0 °F 41.0 °F 46.0 °F 100% 29.70 in 0.2 mi South 10.4 mph - N/A Fog Fog
9:52 AM 48.0 °F - 46.9 °F 96% 29.70 in 0.5 mi South 10.4 mph - N/A Fog Fog
10:52 AM 48.9 °F - 48.0 °F 97% 29.70 in 1.0 mi South 12.7 mph - N/A   Overcast
11:52 AM 48.9 °F - 48.0 °F 97% 29.70 in 1.2 mi South 10.4 mph - N/A   Overcast
12:37 PM 48.2 °F - 48.2 °F 100% 29.69 in 2.0 mi South 11.5 mph - N/A   Overcast
12:52 PM 50.0 °F - 48.0 °F 93% 29.69 in 2.5 mi SSW 5.8 mph - N/A   Overcast
1:37 PM 51.8 °F - 48.2 °F 88% 29.68 in 2.5 mi South 6.9 mph - N/A   Overcast
1:52 PM 52.0 °F - 48.9 °F 89% 29.68 in 4.0 mi SSW 6.9 mph - N/A   Overcast
2:52 PM 52.0 °F - 48.9 °F 89% 29.66 in 3.0 mi South 13.8 mph - N/A   Overcast
3:45 PM 53.6 °F - 48.2 °F 82% 29.62 in 5.0 mi SSE 13.8 mph - N/A   Overcast
3:52 PM 53.1 °F - 48.9 °F 86% 29.64 in 5.0 mi South 13.8 mph 23.0 mph N/A   Overcast
4:52 PM 52.0 °F - 48.0 °F 86% 29.65 in 6.0 mi South 12.7 mph - N/A   Mostly Cloudy
5:19 PM 51.8 °F - 48.2 °F 88% 29.65 in 7.0 mi SSE 11.5 mph - N/A   Partly Cloudy
5:52 PM 51.1 °F - 48.0 °F 89% 29.67 in 6.0 mi SSE 10.4 mph - N/A   Clear
6:52 PM 51.1 °F - 48.0 °F 89% 29.69 in 6.0 mi SSE 9.2 mph - N/A   Clear
7:52 PM 50.0 °F - 46.9 °F 89% 29.70 in 5.0 mi SSE 9.2 mph - N/A   Clear
8:52 PM 48.9 °F - 46.0 °F 90% 29.70 in 5.0 mi SSE 9.2 mph - N/A   Clear
9:52 PM 46.9 °F - 45.0 °F 93% 29.71 in 4.0 mi SSE 5.8 mph - N/A   Clear
10:44 PM 44.6 °F 41.4 °F 44.6 °F 100% 29.69 in 2.5 mi ESE 5.8 mph - N/A   Clear
10:52 PM 44.1 °F 40.8 °F 43.0 °F 96% 29.70 in 2.0 mi ESE 5.8 mph - N/A   Clear
10:59 PM 44.6 °F 41.4 °F 42.8 °F 93% 29.69 in 1.2 mi SE 5.8 mph - N/A   Clear
11:09 PM 44.6 °F 42.2 °F 42.8 °F 93% 29.69 in 0.5 mi ESE 4.6 mph - N/A Fog Fog
11:52 PM 43.0 °F 39.5 °F 42.1 °F 97% 29.70 in 0.5 mi SE 5.8 mph - N/A Fog Fog